When you browse on this site, cookies collect data to enhance your experience and personalize the content and advertising you see.
Visit our Privacy Policy to learn more. By continuing to use the site, you agree to this use of cookies and data.
  • In Spain
  • List of Countries
  • For 7 days
  • Water Temperature
  • Satellite Maps
  • Weather Map
  • Weather Widgets
  • user-avatar
    Login

    Hourly Weather Zhezqazghan

    Today, 25 June, Tuesday

    Time Temperature Precipitation Wind Pressure Humidity
    00:00 +28°C° 0 mm 5 mps 742 mmHg 18%
    01:00 +28°C° 0 mm 5 mps 742 mmHg 20%
    02:00 +28°C° 0 mm 5 mps 742 mmHg 21%
    03:00 +27°C° 0 mm 4 mps 742 mmHg 21%
    04:00 +27°C° 0 mm 4 mps 742 mmHg 23%
    05:00 +29°C° 0 mm 5 mps 743 mmHg 20%
    06:00 +32°C° 0 mm 5 mps 743 mmHg 18%
    07:00 +34°C° 0 mm 5 mps 743 mmHg 15%
    08:00 +36°C° 0 mm 5 mps 743 mmHg 14%
    09:00 +38°C° 0 mm 6 mps 743 mmHg 13%
    10:00 +38°C° 0 mm 7 mps 743 mmHg 13%
    11:00 +39°C° 0 mm 7 mps 742 mmHg 13%
    12:00 +40°C° 0 mm 7 mps 742 mmHg 12%
    13:00 +40°C° 0 mm 6 mps 742 mmHg 12%
    14:00 +40°C° 0 mm 6 mps 741 mmHg 13%
    15:00 +40°C° 0 mm 6 mps 741 mmHg 13%
    16:00 +40°C° 0 mm 6 mps 741 mmHg 14%
    17:00 +39°C° 0 mm 5 mps 741 mmHg 15%
    18:00 +37°C° 0 mm 4 mps 741 mmHg 16%
    19:00 +36°C° 0 mm 3 mps 740 mmHg 18%
    20:00 +34°C° 0 mm 3 mps 740 mmHg 19%
    21:00 +32°C° 0 mm 2 mps 740 mmHg 20%
    22:00 +31°C° 0 mm 2 mps 740 mmHg 21%
    23:00 +31°C° 0 mm 2 mps 740 mmHg 21%

    Tomorrow, 26 June, Wednesday

    Time Temperature Precipitation Wind Pressure Humidity
    00:00 +30°C° 0 mm 2 mps 740 mmHg 22%
    01:00 +30°C° 0 mm 2 mps 739 mmHg 22%
    02:00 +30°C° 0 mm 3 mps 739 mmHg 23%
    03:00 +30°C° 0 mm 3 mps 739 mmHg 23%
    04:00 +30°C° 0 mm 3 mps 739 mmHg 23%
    05:00 +33°C° 0 mm 4 mps 739 mmHg 21%
    06:00 +35°C° 0 mm 4 mps 740 mmHg 20%
    07:00 +37°C° 0 mm 5 mps 740 mmHg 18%
    08:00 +40°C° 0 mm 5 mps 740 mmHg 16%
    09:00 +41°C° 0 mm 6 mps 739 mmHg 14%
    10:00 +42°C° 0 mm 6 mps 739 mmHg 13%
    11:00 +42°C° 0 mm 6 mps 739 mmHg 12%
    12:00 +44°C° 0 mm 6 mps 739 mmHg 11%
    13:00 +44°C° 0 mm 6 mps 738 mmHg 11%
    14:00 +44°C° 0 mm 6 mps 738 mmHg 11%
    15:00 +44°C° 0 mm 6 mps 737 mmHg 11%
    16:00 +43°C° 0 mm 5 mps 737 mmHg 11%
    17:00 +41°C° 0 mm 5 mps 737 mmHg 12%
    18:00 +40°C° 0 mm 4 mps 736 mmHg 13%
    19:00 +37°C° 0 mm 3 mps 736 mmHg 14%
    20:00 +36°C° 0 mm 2 mps 736 mmHg 16%
    21:00 +34°C° 0 mm 2 mps 736 mmHg 17%
    22:00 +31°C° 0 mm 1 mps 735 mmHg 19%
    23:00 +31°C° 0 mm 1 mps 735 mmHg 20%

    Day after tomorrow, 27 June, Thursday

    Time Temperature Precipitation Wind Pressure Humidity
    00:00 +30°C° 0 mm 1 mps 735 mmHg 20%
    01:00 +27°C° 0 mm 0 mps 735 mmHg 21%
    02:00 +28°C° 0 mm 1 mps 735 mmHg 23%
    03:00 +28°C° 0 mm 1 mps 735 mmHg 24%
    04:00 +27°C° 0 mm 1 mps 735 mmHg 25%
    05:00 +30°C° 0 mm 1 mps 735 mmHg 22%
    06:00 +33°C° 0 mm 1 mps 735 mmHg 19%
    07:00 +36°C° 0 mm 1 mps 735 mmHg 16%
    08:00 +38°C° 0 mm 2 mps 735 mmHg 15%
    09:00 +39°C° 0 mm 2 mps 735 mmHg 14%
    10:00 +40°C° 0 mm 3 mps 735 mmHg 13%
    11:00 +42°C° 0 mm 3 mps 734 mmHg 12%
    12:00 +43°C° 0 mm 3 mps 734 mmHg 11%
    13:00 +43°C° 0 mm 3 mps 734 mmHg 10%
    14:00 +43°C° 0 mm 3 mps 734 mmHg 11%
    15:00 +43°C° 0 mm 3 mps 733 mmHg 11%
    16:00 +43°C° 0 mm 3 mps 733 mmHg 11%
    17:00 +42°C° 0 mm 4 mps 733 mmHg 13%
    18:00 +40°C° 0 mm 5 mps 733 mmHg 15%
    19:00 +39°C° 0 mm 6 mps 733 mmHg 17%
    20:00 +37°C° 0 mm 8 mps 733 mmHg 20%
    21:00 +35°C° 0 mm 9 mps 733 mmHg 24%
    22:00 +33°C° 0 mm 10 mps 733 mmHg 27%
    23:00 +33°C° 0 mm 9 mps 733 mmHg 28%

    28 June, Friday

    Time Temperature Precipitation Wind Pressure Humidity
    00:00 +33°C° 0 mm 8 mps 733 mmHg 28%
    01:00 +33°C° 0 mm 7 mps 733 mmHg 28%
    02:00 +33°C° 0.1 mm 6 mps 733 mmHg 29%
    03:00 +32°C° 0.1 mm 4 mps 733 mmHg 30%
    04:00 +31°C° 0.1 mm 3 mps 733 mmHg 31%
    05:00 +31°C° 0.2 mm 3 mps 733 mmHg 30%
    06:00 +33°C° 0.2 mm 3 mps 733 mmHg 29%
    07:00 +34°C° 0.2 mm 3 mps 734 mmHg 28%
    08:00 +33°C° 0 mm 4 mps 734 mmHg 28%
    09:00 +33°C° 0 mm 5 mps 734 mmHg 29%
    10:00 +33°C° 0 mm 7 mps 734 mmHg 29%
    11:00 +34°C° 0 mm 5 mps 734 mmHg 27%
    12:00 +35°C° 0 mm 4 mps 734 mmHg 26%
    13:00 +35°C° 0 mm 2 mps 734 mmHg 24%
    14:00 +36°C° 0 mm 3 mps 734 mmHg 23%
    15:00 +37°C° 0 mm 3 mps 734 mmHg 21%
    16:00 +38°C° 0 mm 3 mps 734 mmHg 20%
    17:00 +37°C° 0 mm 4 mps 734 mmHg 21%
    18:00 +35°C° 0 mm 4 mps 734 mmHg 22%
    19:00 +34°C° 0 mm 4 mps 734 mmHg 23%
    20:00 +33°C° 0 mm 4 mps 734 mmHg 25%
    21:00 +32°C° 0 mm 4 mps 734 mmHg 27%
    22:00 +31°C° 0 mm 3 mps 735 mmHg 29%
    23:00 +30°C° 0 mm 3 mps 735 mmHg 30%

    29 June, Saturday

    Time Temperature Precipitation Wind Pressure Humidity
    00:00 +29°C° 0 mm 2 mps 735 mmHg 32%
    01:00 +29°C° 0 mm 2 mps 735 mmHg 33%
    02:00 +28°C° 0 mm 2 mps 735 mmHg 34%
    03:00 +28°C° 0 mm 3 mps 735 mmHg 34%
    04:00 +28°C° 0 mm 4 mps 735 mmHg 34%
    05:00 +30°C° 0 mm 4 mps 735 mmHg 31%
    06:00 +33°C° 0 mm 5 mps 736 mmHg 28%
    07:00 +34°C° 0 mm 5 mps 736 mmHg 26%
    08:00 +36°C° 0 mm 5 mps 736 mmHg 24%
    09:00 +37°C° 0 mm 5 mps 736 mmHg 22%
    10:00 +38°C° 0 mm 4 mps 736 mmHg 20%
    11:00 +40°C° 0 mm 4 mps 736 mmHg 19%
    12:00 +41°C° 0 mm 4 mps 736 mmHg 18%
    13:00 +41°C° 0 mm 4 mps 735 mmHg 17%
    14:00 +41°C° 0 mm 5 mps 735 mmHg 17%
    15:00 +41°C° 0 mm 5 mps 735 mmHg 17%
    16:00 +41°C° 0 mm 5 mps 735 mmHg 17%
    17:00 +40°C° 0 mm 5 mps 735 mmHg 17%
    18:00 +39°C° 0 mm 6 mps 735 mmHg 18%
    19:00 +38°C° 0 mm 6 mps 735 mmHg 19%
    20:00 +36°C° 0 mm 7 mps 735 mmHg 19%
    21:00 +34°C° 0 mm 7 mps 735 mmHg 20%
    22:00 +33°C° 0 mm 8 mps 735 mmHg 20%
    23:00 +33°C° 0 mm 7 mps 735 mmHg 22%

    30 June, Sunday

    Time Temperature Precipitation Wind Pressure Humidity
    00:00 +32°C° 0 mm 7 mps 735 mmHg 25%
    01:00 +30°C° 0 mm 7 mps 735 mmHg 27%
    02:00 +30°C° 0 mm 6 mps 735 mmHg 29%
    03:00 +29°C° 0 mm 6 mps 735 mmHg 31%
    04:00 +28°C° 0 mm 5 mps 735 mmHg 33%
    05:00 +30°C° 0 mm 5 mps 735 mmHg 31%
    06:00 +32°C° 0 mm 5 mps 735 mmHg 29%
    07:00 +34°C° 0 mm 5 mps 735 mmHg 28%
    08:00 +36°C° 0 mm 4 mps 735 mmHg 25%
    09:00 +37°C° 0 mm 3 mps 735 mmHg 21%
    10:00 +39°C° 0 mm 3 mps 735 mmHg 18%
    11:00 +40°C° 0 mm 3 mps 735 mmHg 17%
    12:00 +42°C° 0 mm 4 mps 735 mmHg 15%
    13:00 +42°C° 0 mm 4 mps 735 mmHg 14%
    14:00 +42°C° 0 mm 4 mps 734 mmHg 13%
    15:00 +43°C° 0 mm 4 mps 734 mmHg 13%
    16:00 +43°C° 0 mm 4 mps 734 mmHg 13%
    17:00 +41°C° 0 mm 4 mps 734 mmHg 15%
    18:00 +40°C° 0 mm 5 mps 734 mmHg 17%
    19:00 +37°C° 0 mm 5 mps 733 mmHg 19%
    20:00 +36°C° 0 mm 5 mps 734 mmHg 20%
    21:00 +35°C° 0 mm 5 mps 734 mmHg 21%
    22:00 +34°C° 0 mm 5 mps 734 mmHg 23%
    23:00 +33°C° 0 mm 5 mps 734 mmHg 23%
    Show more